N1OTX Weather Reports


Display with metric or nautical units.
time (UTC)temp
F
wind
direction
speed
MPH
gust
MPH
rain 1hr
in
rain 24hr
in
rain mn
in
humidity
%
barometer
mb
20260901152520 69 141 5.0 9.0 0.00 0.13 0.13 90 1017.3
20260901152020 69 137 2.0 9.0 0.00 0.13 0.13 90 1017.2
20260901151519 69 120 2.0 4.0 0.00 0.13 0.13 90 1017.4
20260901151019 69 140 1.0 3.0 0.00 0.13 0.13 92 1017.2
20260901150519 68 132 2.0 4.0 0.00 0.13 0.13 93 1017.3
20260901150019 68 114 2.0 6.0 0.00 0.13 0.13 93 1017.3
20260901145519 68 117 3.0 6.0 0.00 0.13 0.13 93 1017.3
20260901145018 68 147 2.0 4.0 0.00 0.13 0.13 94 1017.2
20260901144520 68 143 2.0 6.0 0.00 0.13 0.13 95 1017.2
20260901144020 68 142 2.0 4.0 0.00 0.13 0.13 96 1017.4
20260901143520 68 93 2.0 6.0 0.00 0.13 0.13 96 1017.4
20260901143019 67 128 3.0 6.0 0.01 0.13 0.13 97 1017.4
20260901142519 67 124 2.0 4.0 0.02 0.13 0.13 97 1017.5
20260901142019 67 104 1.0 2.0 0.02 0.13 0.13 98 1017.5
20260901141519 67 94 1.0 4.0 0.03 0.13 0.13 98 1017.6
20260901141019 67 78 1.0 4.0 0.04 0.13 0.13 98 1017.4
20260901140520 67 93 2.0 4.0 0.04 0.13 0.13 98 1017.4
20260901140020 66 134 0.0 4.0 0.05 0.13 0.13 99 1017.4
20260901135520 66 88 2.0 6.0 0.06 0.13 0.13 99 1017.5
20260901135019 66 93 1.0 2.0 0.07 0.13 0.13 99 1017.6
20260901134519 66 94 0.0 2.0 0.08 0.13 0.13 99 1017.7
20260901134100 66 86 1.0 2.0 0.09 0.13 0.13 99 1017.7
20260901133519 66 0.0 0.0 0.10 0.13 0.13 98 1017.7
20260901133019 66 68 0.0 1.0 0.11 0.12 0.12 98 1017.8
20260901132518 66 62 0.0 2.0 0.11 0.12 0.12 98 1017.5
20260901132020 66 33 0.0 1.0 0.11 0.11 0.11 98 1017.7
20260901131520 66 29 0.0 1.0 0.10 0.11 0.11 98 1017.7
20260901131020 66 1 0.0 1.0 0.09 0.10 0.10 98 1017.7
20260901130519 66 57 0.0 2.0 0.09 0.09 0.09 98 1017.5
20260901130059 66 175 0.0 2.0 0.08 0.08 0.08 98 1017.5
20260901125521 66 0.0 0.0 0.07 0.08 0.08 97 1017.7
20260901125021 66 0.0 0.0 0.06 0.07 0.07 97 1017.7
20260901124521 66 0.0 0.0 0.05 0.06 0.06 96 1017.6
20260901124020 66 0.0 0.0 0.04 0.04 0.04 96 1017.6
20260901123520 66 0.0 0.0 0.02 0.03 0.03 96 1017.7
20260901123020 66 0.0 0.0 0.01 0.02 0.02 96 1017.6
20260901122540 66 0.0 0.0 0.00 0.00 0.00 95 1017.6
20260901122019 66 271 0.0 1.0 0.00 0.00 0.00 95 1017.5
20260901121519 66 271 0.0 1.0 0.00 0.00 0.00 95 1017.5
20260901121020 66 0.0 0.0 0.00 0.00 0.00 95 1017.5
20260901120521 66 0.0 0.0 0.00 0.00 0.00 95 1017.6
20260901120101 66 0.0 0.0 0.00 0.00 0.00 95 1017.6
20260901115520 66 0.0 0.0 0.00 0.00 0.00 95 1017.7
20260901115020 66 0.0 0.0 0.00 0.00 0.00 95 1017.7
20260901114519 66 0.0 0.0 0.00 0.00 0.00 95 1017.6
20260901114019 66 0.0 0.0 0.00 0.00 0.00 95 1017.5
20260901113519 66 0.0 0.0 0.00 0.00 0.00 95 1017.6
20260901113023 66 0.0 0.0 0.00 0.00 0.00 94 1017.5
20260901112520 66 0.0 0.0 0.00 0.00 0.00 94 1017.5
20260901112020 66 0.0 0.0 0.00 0.00 0.00 94 1017.5
20260901111540 66 0.0 0.0 0.00 0.00 0.00 94 1017.4
20260901111020 65 272 0.0 1.0 0.00 0.00 0.00 94 1017.4
20260901110540 65 271 0.0 1.0 0.00 0.00 0.00 94 1017.3
20260901110019 65 271 0.0 1.0 0.00 0.00 0.00 94 1017.2
20260901105539 65 0.0 0.0 0.00 0.00 0.00 94 1017.2
20260901105021 65 0.0 0.0 0.00 0.00 0.00 93 1017.3
20260901104520 65 271 0.0 1.0 0.00 0.00 0.00 93 1017.3
20260901104040 65 0.0 0.0 0.00 0.00 0.00 93 1017.2
20260901103621 65 0.0 0.0 0.00 0.00 0.00 93 1017.1
20260901103022 65 0.0 0.0 0.00 0.00 0.00 93 1017.1
20260901102520 65 280 0.0 1.0 0.00 0.00 0.00 93 1017.1
20260901102019 65 303 0.0 1.0 0.00 0.00 0.00 93 1016.9
20260901101539 65 298 0.0 2.0 0.00 0.00 0.00 93 1017.0
20260901101101 65 305 0.0 1.0 0.00 0.00 0.00 93 1017.0
20260901100520 65 307 0.0 1.0 0.00 0.00 0.00 93 1016.8
20260901100020 65 308 0.0 1.0 0.00 0.00 0.00 93 1016.8
20260901095520 65 307 0.0 1.0 0.00 0.00 0.00 92 1016.8
20260901095020 65 309 0.0 1.0 0.00 0.00 0.00 92 1016.8
20260901094519 65 289 0.0 1.0 0.00 0.00 0.00 92 1016.8
20260901094019 66 294 0.0 1.0 0.00 0.00 0.00 92 1016.9
20260901093519 66 302 0.0 1.0 0.00 0.00 0.00 92 1016.8
20260901093021 66 0.0 0.0 0.00 0.00 0.00 92 1016.9
20260901092541 66 0.0 0.0 0.00 0.00 0.00 91 1016.9
20260901092020 66 220 0.0 1.0 0.00 0.00 0.00 90 1016.9
20260901091520 66 0.0 0.0 0.00 0.00 0.00 90 1016.9
20260901091040 66 0.0 0.0 0.00 0.00 0.00 89 1016.9
20260901090520 66 219 0.0 1.0 0.00 0.00 0.00 88 1016.9
20260901090019 66 219 0.0 1.0 0.00 0.00 0.00 87 1016.8
20260901085519 67 227 0.0 2.0 0.00 0.00 0.00 87 1016.8
20260901085021 67 240 0.0 4.0 0.00 0.00 0.00 86 1016.9
20260901084521 67 223 0.0 4.0 0.00 0.00 0.00 85 1016.9
20260901084021 67 185 1.0 2.0 0.00 0.00 0.00 85 1016.9
20260901083520 67 178 0.0 2.0 0.00 0.00 0.00 85 1017.0
20260901083041 67 179 0.0 1.0 0.00 0.00 0.00 85 1017.0
20260901082520 67 0.0 0.0 0.00 0.00 0.00 85 1016.9
20260901082020 67 178 0.0 1.0 0.00 0.00 0.00 84 1017.1
20260901081539 67 0.0 0.0 0.00 0.00 0.00 85 1017.1
20260901081039 67 178 0.0 1.0 0.00 0.00 0.00 84 1017.1
20260901080521 67 179 0.0 1.0 0.00 0.00 0.00 84 1017.3
20260901080041 67 176 0.0 2.0 0.00 0.00 0.00 84 1017.3
20260901075540 67 158 1.0 2.0 0.00 0.00 0.00 83 1017.4
20260901075020 67 169 1.0 2.0 0.00 0.00 0.00 83 1017.3
20260901074520 67 143 0.0 2.0 0.00 0.00 0.00 83 1017.4
20260901074020 67 174 1.0 2.0 0.00 0.00 0.00 83 1017.4
20260901073519 67 175 1.0 3.0 0.00 0.00 0.00 82 1017.5
20260901073019 67 176 1.0 2.0 0.00 0.00 0.00 82 1017.5
20260901072519 67 189 0.0 1.0 0.00 0.00 0.00 82 1017.5
20260901072021 67 192 1.0 2.0 0.00 0.00 0.00 82 1017.5
20260901071518 67 194 1.0 3.0 0.00 0.00 0.00 82 1017.5
20260901071020 67 188 1.0 2.0 0.00 0.00 0.00 81 1017.6
20260901070520 67 197 1.0 4.0 0.00 0.00 0.00 81 1017.6
20260901070040 67 221 1.0 2.0 0.00 0.00 0.00 81 1017.6
20260901065520 67 197 0.0 2.0 0.00 0.00 0.00 81 1017.5
20260901065019 67 216 0.0 1.0 0.00 0.00 0.00 80 1017.5
20260901064539 67 248 0.0 2.0 0.00 0.00 0.00 80 1017.6
20260901064021 67 202 1.0 2.0 0.00 0.00 0.00 80 1017.5
20260901063521 67 171 0.0 3.0 0.00 0.00 0.00 80 1017.6
20260901063022 67 190 1.0 3.0 0.00 0.00 0.00 79 1017.7
20260901062540 67 0.0 0.0 0.00 0.00 0.00 79 1017.8
20260901062020 67 297 0.0 1.0 0.00 0.00 0.00 79 1017.7
20260901061519 67 181 0.0 1.0 0.00 0.00 0.00 79 1017.6
20260901061019 68 185 0.0 2.0 0.00 0.00 0.00 78 1017.7
20260901060521 68 208 0.0 4.0 0.00 0.00 0.00 78 1017.7
20260901060021 68 208 1.0 4.0 0.00 0.00 0.00 78 1017.6
20260901055520 68 195 1.0 4.0 0.00 0.00 0.00 77 1017.6
20260901055020 68 199 1.0 3.0 0.00 0.00 0.00 77 1017.8
20260901054540 68 195 1.0 3.0 0.00 0.00 0.00 76 1017.7
20260901054020 68 209 1.0 6.0 0.00 0.00 0.00 76 1017.7
20260901053520 68 212 1.0 3.0 0.00 0.00 0.00 76 1017.7
20260901053019 68 191 1.0 3.0 0.00 0.00 0.00 75 1017.7
20260901052521 68 200 1.0 4.0 0.00 0.00 0.00 75 1017.6
20260901052021 68 205 1.0 4.0 0.00 0.00 0.00 74 1017.6
20260901051519 68 153 1.0 6.0 0.00 0.00 0.00 73 1017.7
20260901051040 68 191 1.0 6.0 0.00 0.00 0.00 73 1017.7
20260901050520 68 195 1.0 4.0 0.00 0.00 0.00 73 1017.8
20260901050020 68 233 0.0 2.0 0.00 0.00 0.00 74 1017.7
20260901045519 68 209 1.0 2.0 0.00 0.00 0.00 73 1017.7
20260901045019 68 237 0.0 3.0 0.00 0.00 0.00 73 1017.8
20260901044519 68 215 1.0 3.0 0.00 0.00 0.00 72 1017.8
20260901044021 68 235 1.0 4.0 0.00 0.00 0.00 72 1017.8
20260901043521 68 221 1.0 4.0 0.00 0.00 0.00 72 1017.8
20260901043020 68 210 1.0 4.0 0.00 0.00 0.00 72 1017.7
20260901042521 68 182 1.0 4.0 0.00 0.00 0.00 72 1017.8
20260901042020 68 196 2.0 4.0 0.00 0.00 0.00 72 1017.9
20260901041520 68 174 2.0 4.0 0.00 0.00 0.00 73 1017.8
20260901041019 68 203 2.0 4.0 0.00 0.00 0.00 73 1017.8
20260901040519 68 196 2.0 6.0 0.00 0.00 0.00 74 1017.9
20260901040026 68 218 2.0 8.0 0.00 0.00 0.00 74 1017.9
20260901035521 68 209 3.0 8.0 0.00 0.00 0.00 75 1017.9
20260901035021 68 196 2.0 6.0 0.00 0.00 0.00 77 1018.0
20260901034520 68 208 1.0 7.0 0.00 0.00 0.00 77 1018.0
20260901034020 68 198 2.0 6.0 0.00 0.00 0.00 78 1017.9
20260901033540 68 206 2.0 8.0 0.00 0.00 0.00 79 1017.8
20260901033020 68 177 2.0 6.0 0.00 0.00 0.00 79 1017.9
20260901032519 68 190 3.0 8.0 0.00 0.00 0.00 79 1018.0
20260901032039 68 197 3.0 7.0 0.00 0.00 0.00 80 1017.9
20260901031519 68 215 2.0 6.0 0.00 0.00 0.00 81 1017.9
20260901031041 68 194 2.0 4.0 0.00 0.00 0.00 81 1017.9
20260901030600 68 183 2.0 7.0 0.00 0.00 0.00 81 1017.8
20260901030020 68 179 2.0 6.0 0.00 0.00 0.00 81 1017.8
20260901025520 69 203 3.0 7.0 0.00 0.00 0.00 81 1017.8
20260901025020 69 206 2.0 7.0 0.00 0.00 0.00 81 1017.9
20260901024600 69 203 2.0 6.0 0.00 0.00 0.00 81 1017.8
20260901024019 69 186 2.0 4.0 0.00 0.00 0.00 80 1017.8
20260901023521 69 179 2.0 6.0 0.00 0.00 0.00 80 1017.8
20260901023021 69 190 2.0 4.0 0.00 0.00 0.00 80 1017.8
20260901022541 69 197 2.0 4.0 0.00 0.00 0.00 80 1017.8
20260901022020 69 194 2.0 8.0 0.00 0.00 0.00 80 1017.6
20260901021520 69 188 2.0 8.0 0.00 0.00 0.00 79 1017.8
20260901021040 69 211 1.0 6.0 0.00 0.00 0.00 79 1017.8
20260901020519 69 191 2.0 4.0 0.00 0.00 0.00 79 1017.9
20260901020040 69 196 2.0 6.0 0.00 0.00 0.00 78 1017.7
20260901015539 69 179 2.0 4.0 0.00 0.00 0.00 78 1017.8
20260901015021 69 218 1.0 7.0 0.00 0.00 0.00 78 1017.8
20260901014521 69 202 3.0 7.0 0.00 0.00 0.00 77 1017.9
20260901014020 70 194 2.0 7.0 0.00 0.00 0.00 76 1017.9
20260901013525 70 203 3.0 8.0 0.00 0.00 0.00 76 1017.9
20260901013020 70 208 2.0 6.0 0.00 0.00 0.00 75 1018.0
20260901012521 70 201 1.0 3.0 0.00 0.00 0.00 75 1018.0
20260901012020 70 192 2.0 7.0 0.00 0.00 0.00 75 1018.1
20260901011544 70 202 2.0 4.0 0.00 0.00 0.00 74 1018.0
20260901011039 70 203 2.0 4.0 0.00 0.00 0.00 75 1018.0
20260901010521 70 205 1.0 7.0 0.00 0.00 0.00 75 1017.9
20260901010020 69 196 2.0 7.0 0.00 0.00 0.00 75 1017.9
20260901005520 69 197 1.0 2.0 0.00 0.00 0.00 75 1017.9
20260901005020 69 220 0.0 2.0 0.00 0.00 0.00 75 1017.8
20260901004520 69 203 0.0 2.0 0.00 0.00 0.00 75 1017.7
20260901004020 68 212 0.0 3.0 0.00 0.00 0.00 76 1017.8
20260901003519 68 209 0.0 3.0 0.00 0.00 0.00 74 1017.7
20260901003019 68 192 0.0 2.0 0.00 0.00 0.00 75 1017.7
20260901002521 68 158 0.0 1.0 0.00 0.00 0.00 74 1017.7
20260901002020 68 158 0.0 2.0 0.00 0.00 0.00 74 1017.7
20260901001539 68 177 0.0 2.0 0.00 0.00 0.00 75 1017.8
20260901001020 68 189 0.0 2.0 0.00 0.00 0.00 75 1017.7
20260901000520 68 0.0 0.0 0.00 0.00 0.00 74 1017.7
20260901000020 68 189 0.0 1.0 0.00 0.00 0.00 74 1017.7
20260831235520 68 0.0 0.0 0.00 0.00 0.00 73 1017.7
20260831235059 68 0.0 0.0 0.00 0.00 0.00 73 1017.7
20260831234519 69 0.0 0.0 0.00 0.00 0.00 71 1017.7
20260831234021 69 0.0 0.0 0.00 0.00 0.00 72 1017.8
20260831233520 69 0.0 0.0 0.00 0.00 0.00 71 1017.8
20260831233020 69 0.0 0.0 0.00 0.00 0.00 70 1017.7
20260831232520 70 0.0 0.0 0.00 0.00 0.00 69 1017.8
20260831232020 70 0.0 0.0 0.00 0.00 0.00 71 1017.9
20260831231520 70 0.0 0.0 0.00 0.00 0.00 67 1017.9
20260831231019 71 0.0 0.0 0.00 0.00 0.00 66 1017.9
20260831230519 71 0.0 0.0 0.00 0.00 0.00 65 1017.9
20260831230019 71 0.0 0.0 0.00 0.00 0.00 64 1018.1
20260831225520 71 0.0 0.0 0.00 0.00 0.00 63 1018.0
20260831225020 71 0.0 0.0 0.00 0.00 0.00 64 1017.9
20260831224522 72 0.0 0.0 0.00 0.00 0.00 65 1018.0
20260831224020 72 0.0 0.0 0.00 0.00 0.00 64 1017.9
20260831223540 73 0.0 0.0 0.00 0.00 0.00 64 1018.1
20260831223020 73 188 0.0 1.0 0.00 0.00 0.00 61 1018.1
20260831222539 74 188 0.0 2.0 0.00 0.00 0.00 60 1018.1
20260831222019 74 196 1.0 6.0 0.00 0.00 0.00 58 1018.0
20260831221519 73 242 0.0 2.0 0.00 0.00 0.00 58 1018.1
20260831221020 74 0.0 1.0 0.00 0.00 0.00 60 1018.0
20260831220540 74 228 0.0 1.0 0.00 0.00 0.00 58 1018.0
20260831220040 75 220 0.0 2.0 0.00 0.00 0.00 55 1018.0
20260831215520 75 183 1.0 4.0 0.00 0.00 0.00 54 1017.8
20260831215020 76 184 1.0 3.0 0.00 0.00 0.00 53 1017.9
20260831214519 76 223 1.0 3.0 0.00 0.00 0.00 52 1017.8
20260831214019 76 262 1.0 3.0 0.00 0.00 0.00 53 1017.9
20260831213521 76 196 1.0 4.0 0.00 0.00 0.00 51 1018.0
20260831213041 76 175 3.0 7.0 0.00 0.00 0.00 51 1018.0
20260831212521 76 282 1.0 7.0 0.00 0.00 0.00 50 1018.1
20260831212020 76 221 2.0 4.0 0.00 0.00 0.00 52 1018.1
20260831211540 76 157 1.0 2.0 0.00 0.00 0.00 53 1018.1
20260831211020 76 253 0.0 2.0 0.00 0.00 0.00 54 1018.0
20260831210519 76 186 1.0 2.0 0.00 0.00 0.00 52 1018.1
20260831210019 76 260 0.0 2.0 0.00 0.00 0.00 53 1018.1
20260831205519 76 250 0.0 2.0 0.00 0.00 0.00 50 1018.1
20260831205021 76 248 0.0 2.0 0.00 0.00 0.00 50 1018.1
20260831204520 77 286 0.0 4.0 0.00 0.00 0.00 50 1018.1
20260831204020 76 186 1.0 8.0 0.00 0.00 0.00 47 1018.1
20260831203520 76 213 1.0 2.0 0.00 0.00 0.00 48 1018.2
20260831203020 76 320 1.0 3.0 0.00 0.00 0.00 48 1018.1
20260831202519 77 277 2.0 7.0 0.00 0.00 0.00 48 1018.0
20260831202040 77 184 1.0 4.0 0.00 0.00 0.00 47 1017.9
20260831201519 77 178 1.0 6.0 0.00 0.00 0.00 46 1018.1
20260831201019 78 204 1.0 3.0 0.00 0.00 0.00 45 1018.0
20260831200520 78 283 1.0 4.0 0.00 0.00 0.00 45 1018.1
20260831200020 78 188 1.0 4.0 0.00 0.00 0.00 45 1018.2
20260831195540 78 283 2.0 4.0 0.00 0.00 0.00 45 1018.2
20260831195020 78 57 1.0 6.0 0.00 0.00 0.00 45 1018.2
20260831194520 78 185 1.0 4.0 0.00 0.00 0.00 45 1018.3
20260831194020 77 354 1.0 4.0 0.00 0.00 0.00 44 1018.3
20260831193519 77 204 2.0 7.0 0.00 0.00 0.00 45 1018.4
20260831193019 77 3 1.0 3.0 0.00 0.00 0.00 45 1018.4
20260831192521 77 316 1.0 4.0 0.00 0.00 0.00 45 1018.5
20260831192020 78 260 1.0 4.0 0.00 0.00 0.00 47 1018.6
20260831191518 78 205 1.0 6.0 0.00 0.00 0.00 47 1018.5
20260831191040 78 192 2.0 6.0 0.00 0.00 0.00 46 1018.5
20260831190540 78 128 1.0 3.0 0.00 0.00 0.00 46 1018.6
20260831190039 78 77 0.0 3.0 0.00 0.00 0.00 44 1018.6
20260831185539 77 166 1.0 3.0 0.00 0.00 0.00 44 1018.6
20260831185039 77 332 1.0 3.0 0.00 0.00 0.00 45 1018.8
20260831184519 77 345 1.0 2.0 0.00 0.00 0.00 45 1018.8
20260831184041 77 18 0.0 1.0 0.00 0.00 0.00 46 1019.0
20260831183540 78 3 1.0 3.0 0.00 0.00 0.00 48 1019.0
20260831183022 78 337 1.0 3.0 0.00 0.00 0.00 44 1019.0
20260831182519 78 291 1.0 3.0 0.00 0.00 0.00 46 1019.1
20260831182019 78 44 0.0 3.0 0.00 0.00 0.00 41 1019.1
20260831181519 77 247 1.0 3.0 0.00 0.00 0.00 45 1019.1
20260831181019 78 44 1.0 3.0 0.00 0.00 0.00 44 1019.2
20260831180521 78 283 1.0 4.0 0.00 0.00 0.00 46 1019.1
20260831180020 78 159 1.0 3.0 0.00 0.00 0.00 44 1019.0
20260831175519 78 288 1.0 3.0 0.00 0.00 0.00 43 1019.1
20260831175019 78 181 2.0 4.0 0.00 0.00 0.00 43 1019.1
20260831174519 78 174 1.0 3.0 0.00 0.00 0.00 41 1019.2
20260831174021 78 85 1.0 4.0 0.00 0.00 0.00 42 1019.2
20260831173540 77 152 1.0 4.0 0.00 0.00 0.00 42 1019.3
20260831173020 78 82 1.0 3.0 0.00 0.00 0.00 42 1019.3
20260831172520 77 114 2.0 6.0 0.00 0.00 0.00 44 1019.4
20260831172020 77 118 3.0 6.0 0.00 0.00 0.00 45 1019.4
20260831171540 76 116 1.0 3.0 0.00 0.00 0.00 46 1019.5
20260831171019 76 349 0.0 3.0 0.00 0.00 0.00 49 1019.6
20260831170519 76 232 2.0 4.0 0.00 0.00 0.00 49 1019.6
20260831170019 76 119 1.0 2.0 0.00 0.00 0.00 49 1019.6
20260831165520 76 73 1.0 3.0 0.00 0.00 0.00 43 1019.7
20260831165040 76 353 1.0 3.0 0.00 0.00 0.00 49 1019.8
20260831164520 76 62 0.0 1.0 0.00 0.00 0.00 47 1019.8
20260831164020 75 112 0.0 1.0 0.00 0.00 0.00 48 1019.8
20260831163520 76 87 0.0 1.0 0.00 0.00 0.00 47 1019.7
20260831163019 75 357 0.0 2.0 0.00 0.00 0.00 50 1019.8
20260831162519 75 55 1.0 3.0 0.00 0.00 0.00 45 1020.0
20260831162039 75 65 1.0 3.0 0.00 0.00 0.00 46 1020.0
20260831161521 75 314 0.0 2.0 0.00 0.00 0.00 47 1020.0
20260831161020 76 308 1.0 2.0 0.00 0.00 0.00 44 1020.0
20260831160521 76 34 1.0 3.0 0.00 0.00 0.00 47 1020.1
20260831160020 76 245 1.0 3.0 0.00 0.00 0.00 48 1020.2
20260831155520 75 217 1.0 3.0 0.00 0.00 0.00 47 1020.2
20260831155019 75 253 1.0 3.0 0.00 0.00 0.00 49 1020.2
20260831154519 75 93 2.0 8.0 0.00 0.00 0.00 47 1020.2
20260831154019 75 92 3.0 8.0 0.00 0.00 0.00 49 1020.3
20260831153519 75 119 2.0 3.0 0.00 0.00 0.00 54 1020.3
20260831153021 75 240 1.0 1.0 0.00 0.00 0.00 52 1020.4